[Iaude] MPEC L93: 2024 LG2 [a=2.09,e=0.44,i=5.8,H=22.3]
    mpec at cfa.harvard.edu 
    mpec at cfa.harvard.edu
       
    Sun Jun  9 06:57:42 EDT 2024
    
    
  
M.P.E.C. 2024-L93                                  Issued 2024 June 9, 10:56 UT
     The Minor Planet Electronic Circulars contain information on unusual
         minor planets, routine data on comets and natural satellites,
         and occasional editorial announcements.  They are published
    on behalf of Division F of the International Astronomical Union by the
          Minor Planet Center, Smithsonian Astrophysical Observatory,
                          Cambridge, MA 02138, U.S.A.
			  
             Prepared using the Tamkin Foundation Computer Network
                              MPC at CFA.HARVARD.EDU
            URL https://www.minorplanetcenter.net/    ISSN 1523-6714
                                    2024 LG2                                    
Observations:
     K24L02G* C2024 06 06.53117620 02 34.249-24 58 50.90         21.04wXEL093F52
     K24L02G  C2024 06 06.54163520 02 36.384-24 58 31.34         21.39wXEL093F52
     K24L02G  C2024 06 06.55210220 02 38.532-24 58 11.81         20.96wXEL093F52
     K24L02G |C2024 06 07.27474020 05 17.490-24 34 52.00         20.9 GVEL093807
     K24L02G |C2024 06 07.28024020 05 18.590-24 34 40.80         20.9 GVEL093807
     K24L02G |C2024 06 07.28554020 05 19.690-24 34 32.20         21.3 GVEL093807
     K24L02G KC2024 06 07.55419720 06 19.092-24 25 42.67         21.0 GVEL093474
     K24L02G KC2024 06 07.55900320 06 20.098-24 25 33.06         21.2 GVEL093474
     K24L02G KC2024 06 07.56381120 06 21.139-24 25 24.28         20.9 GVEL093474
     K24L02G !C2024 06 08.07463920 08 13.340-24 09 20.45         21.3 GVEL093J04
     K24L02G !C2024 06 08.08311620 08 15.090-24 09 03.84         20.1 GVEL093J04
     K24L02G KC2024 06 08.41082 20 09 26.03 -23 58 15.0          21.2 RVEL093291
     K24L02G KC2024 06 08.41381 20 09 26.63 -23 58 09.0          20.8 RVEL093291
     K24L02G KC2024 06 08.41679 20 09 27.25 -23 58 03.0          20.7 RVEL093291
     K24L02G KC2024 06 09.41322 20 13 05.26 -23 24 15.5                VEL093691
     K24L02G KC2024 06 09.41849 20 13 06.30 -23 24 05.0          20.9 RVEL093691
     K24L02G KC2024 06 09.42376 20 13 07.42 -23 23 53.7          21.1 RVEL093691
Observer details:
291 LPL/Spacewatch II.  Observer R. A. Mastaler.  1.8-m f/2.7 reflector + CCD.
474 Mount John Observatory, Lake Tekapo.  Observers A. C. Gilmore, P. M.
    Kilmartin.  Measurer P. M. Kilmartin.  1.0-m f/7.7 Reflector + CCD.
691 Steward Observatory, Kitt Peak-Spacewatch.  Observer R. A. Mastaler.
    0.9-m f/3 reflector + CCD.
807 Cerro Tololo Observatory, La Serena.  Observers T. Linder, R. Holmes.
    0.61-m f/6.8 Ritchey-Chretien + CCD.
F52 Pan-STARRS 2, Haleakala.  Observers J. Herman, T. Lowe, P. Minguez, A.
    Schultz, I. Smith.  Measurers K. Chambers, T. de Boer, J. Fairlamb, H.
    Gao, M. Huber, C.-C. Lin, E. Magnier, Y. Ramanjooloo, R. Wainscoat, R.
    Weryk.  1.8-m Ritchey-Chretien + CCD.
J04 ESA Optical Ground Station, Tenerife.  Observers P. Ruiz, M. Micheli, F.
    Ocana, L. Conversi.  Measurers R. Kresken, M. Micheli, F. Ocana, A.
    Knofel, M. Busch, E. Schwab.  1.0-m f/4.4 reflector + CCD.
Orbital elements:
2024 LG2                                                 Earth MOID = 0.1589 AU
Epoch 2024 Mar. 31.0 TT = JDT 2460400.5                 MPC                     
M 327.08902              (2000.0)            P               Q                  
n   0.32506847     Peri.   21.10233     +0.41539621     +0.90408911             
a   2.0948495      Node   273.55667     -0.84831621     +0.34521038             
e   0.4409303      Incl.    5.77011     -0.32833761     +0.25189813             
P   3.03           H   22.34          G   0.15           U   9                  
Residuals in seconds of arc
240606 F52  0.1+  0.1-    240607 474  0.2-  0.2-    240608 291  0.0   0.0
240606 F52  0.1-  0.0     240607 474  0.3-  0.2+    240608 291  0.1+  0.1+
240606 F52  0.0   0.0     240607 474  0.2+  0.2-    240609 691  0.2+  0.1+
240607 807  0.3+  0.0     240608 J04  0.0   0.2-    240609 691  0.4-  0.2-
240607 807  0.2-  0.8+    240608 J04  0.1-  0.0     240609 691  0.1+  0.2+
240607 807  0.1-  0.7-    240608 291  0.2+  0.1-
Ephemeris:
2024 LG2                 a,e,i = 2.09, 0.44, 6                   q = 1.1712
Date    TT    R. A. (2000) Decl.     Delta      r    Elong.  Phase     V
2024 05 10    18 26 56.7 -32 53 20   0.4170  1.3296   133.0    33.7    22.5
...
2024 05 25    19 17 15.6 -30 02 50   0.3216  1.2659   136.6    33.3    21.8
...
2024 06 02    19 46 01.1 -27 08 17   0.2818  1.2374   137.8    33.4    21.4
...
2024 06 08    20 07 55.6 -24 11 24   0.2570  1.2189   138.3    33.7    21.2
2024 06 09    20 11 34.4 -23 37 58   0.2534  1.2161   138.3    33.7    21.2
2024 06 10    20 15 12.9 -23 03 23   0.2498  1.2133   138.3    33.8    21.2
...
2024 06 16    20 36 49.5 -19 13 10   0.2312  1.1986   138.4    34.3    21.0
...
2024 06 24    21 04 21.6 -13 14 23   0.2136  1.1836   137.9    35.1    20.8
...
2024 07 09    21 48 05.7 -01 02 47   0.2008  1.1712   136.8    36.4    20.7
A. U. Tomatic                (C) Copyright 2024 MPC           M.P.E.C. 2024-L93
    
    
More information about the Iaude
mailing list